Tracking 18980 objects as of 19-Feb-2018
HD Live streaming from Space Station
objects crossing your sky now

TELSTAR 12 (ORION 2)

Track TELSTAR 12 (ORION 2) now!
TELSTAR 12 (ORION 2) is classified as:


NORAD ID: 25949
Int'l Code: 1999-059A
Perigee: 35,781.3 km
Apogee: 35,805.9 km
Inclination: 1.5 °
Period: 1,436.1 minutes
Semi major axis: 42164 km
RCS: 31.4284 m2 (large)
Launch date: October 19, 1999
Source: United States (US)
Launch site: FRENCH GUIANA (FRGUI)

Voice and video communications to the Americas, Europe, and Africa
aabbcc
Your satellite tracking list
Your tracking list is empty




NASA's NSSDC Master Catalog

Two Line Element Set (TLE):
1 25949U 99059A   18049.37494188 -.00000068  00000-0  00000+0 0  9991
2 25949   1.4555  87.8498 0002919 241.8689 204.3232  1.00272433 67038
Source of the keplerian elements: AFSPC